Temp
-8 -8 -8 -8 -8 -8 -8 -8 -8 -8 -8 -8 -8 -8 -7 -7 -7 -7 -7 -7 -7 -7 -7 -6 -6 -7 -7 -7 -7 -7 -7 -7 -7 -7 -7 -7 -7 -8 -8 -8 -8 -8 -8
-8 -9 -8 -8 -8 -8 -8 -8 -8 -8 -8 -8 -8 -8 -8 -7 -7 -8 -8 -8 -7 -7 -6 -6 -6 -6 -7 -7 -7 -7 -7 -7 -7 -7 -7 -7 -7 -8 -8 -8 -8 -9 -9
-9 -9 -9 -8 -8 -9 -9 -9 -9 -9 -9 -9 -8 -8 -7 -8 -8 -8 -8 -8 -7 -6 -6 -6 -6 -6 -6 -7 -7 -7 -7 -7 -7 -7 -7 -7 -7 -7 -8 -8 -8 -8 -8
-9 -8 -9 -8 -8 -8 -9 -9 -9 -9 -9 -9 -9 -9 -8 -8 -8 -8 -8 -7 -6 -6 -6 -6 -6 -6 -7 -6 -6 -7 -7 -7 -7 -7 -7 -7 -7 -8 -8 -8 -8 -7 -8
-8 -9 -8 -8 -8 -8 -9 -10 -10 -9 -9 -9 -9 -9 -9 -9 -9 -8 -8 -7 -6 -7 -7 -7 -8 -7 -6 -6 -7 -7 -7 -7 -7 -8 -7 -8 -8 -8 -7 -8 -8 -8 -7
-8 -9 -10 -8 -8 -9 -10 -10 -10 -10 -9 -10 -9 -9 -9 -9 -9 -8 -8 -8 -7 -7 -7 -7 -7 -7 -7 -7 -7 -7 -7 -7 -7 -8 -8 -8 -7 -8 -8 -8 -8 -7 -8
-9 -9 -6 -9 -9 -9 -10 -10 -10 -10 -10 -10 -9 -9 -9 -9 -9 -8 -8 -8 -7 -7 -7 -7 -7 -7 -7 -7 -7 -7 -7 -7 -7 -7 -8 -8 -8 -8 -8 -8 -8 -7 -8
-9 -9 -8 -10 -10 -10 -10 -10 -11 -11 -11 -10 -10 -9 -8 -9 -9 -8 -8 -8 -7 -7 -7 -7 -6 -7 -7 -7 -7 -7 -7 -8 -8 -8 -8 -8 -8 -8 -8 -8 -8 -8 -8
-9 -9 -9 -9 -10 -10 -10 -11 -11 -11 -10 -10 -10 -9 -9 -9 -8 -8 -8 -8 -7 -7 -7 -7 -7 -7 -7 -7 -7 -7 -7 -8 -8 -8 -8 -8 -8 -8 -8 -8 -8 -8 -8
-10 -9 -9 -8 -9 -10 -10 -11 -11 -10 -10 -10 -10 -9 -9 -9 -9 -8 -8 -8 -7 -7 -7 -7 -7 -7 -6 -6 -6 -6 -7 -7 -7 -7 -8 -8 -8 -8 -8 -8 -8 -8 -8
-9 -9 -9 -9 -9 -9 -10 -11 -10 -8 -8 -9 -10 -9 -9 -9 -9 -8 -8 -8 -8 -7 -7 -7 -7 -6 -6 -6 -6 -6 -6 -6 -6 -7 -7 -7 -7 -7 -7 -7 -8 -8 -8
-9 -11 -10 -10 -9 -9 -10 -11 -10 -9 -8 -10 -9 -9 -9 -9 -9 -9 -8 -8 -8 -7 -7 -7 -7 -7 -6 -6 -6 -6 -6 -6 -6 -6 -6 -6 -6 -6 -6 -6 -7 -7 -7
-9 -10 -10 -10 -9 -9 -10 -11 -11 -11 -9 -10 -9 -9 -9 -9 -9 -9 -9 -8 -8 -8 -7 -7 -7 -7 -7 -6 -6 -6 -6 -6 -6 -6 -6 -6 -6 -6 -6 -6 -7 -7 -7
-10 -10 -10 -10 -9 -9 -10 -11 -10 -10 -10 -10 -10 -10 -10 -9 -9 -9 -9 -9 -8 -8 -8 -7 -7 -7 -7 -7 -6 -6 -6 -6 -6 -6 -7 -7 -7 -7 -7 -7 -7 -7 -7
-10 -9 -9 -11 -9 -10 -11 -11 -10 -10 -10 -10 -10 -10 -10 -10 -10 -10 -9 -9 -8 -8 -8 -7 -7 -7 -7 -7 -7 -7 -7 -7 -7 -7 -7 -7 -7 -7 -7 -7 -7 -7 -7
-9 -9 -10 -10 -10 -10 -11 -11 -10 -11 -10 -10 -11 -10 -9 -10 -10 -10 -10 -9 -9 -8 -8 -8 -7 -7 -7 -7 -7 -7 -7 -7 -7 -7 -7 -7 -7 -7 -7 -7 -7 -7 -7
-9 -8 -9 -11 -9 -8 -9 -10 -10 -10 -11 -11 -11 -10 -10 -10 -10 -10 -10 -9 -8 -8 -8 -8 -8 -7 -7 -7 -8 -7 -7 -7 -7 -7 -7 -7 -8 -7 -7 -7 -7 -8 -8
-9 -8 -10 -10 -9 -9 -9 -10 -10 -10 -10 -11 -10 -10 -10 -10 -10 -10 -10 -9 -9 -8 -8 -8 -8 -8 -8 -8 -8 -8 -8 -8 -8 -8 -8 -8 -8 -8 -8 -8 -8 -8 -8
-9 -10 -10 -10 -10 -10 -10 -10 -10 -9 -10 -10 -11 -11 -11 -11 -11 -10 -9 -9 -9 -8 -9 -9 -9 -9 -9 -9 -8 -8 -8 -8 -8 -9 -8 -8 -8 -8 -8 -8 -9 -9 -9
-10 -11 -10 -10 -10 -10 -10 -10 -11 -10 -10 -11 -10 -11 -11 -11 -10 -10 -10 -10 -9 -9 -9 -9 -9 -9 -9 -9 -9 -8 -9 -9 -9 -9 -9 -9 -9 -8 -9 -9 -9 -9 -10
-11 -11 -10 -11 -11 -11 -10 -10 -10 -10 -10 -10 -10 -11 -11 -10 -10 -10 -10 -10 -10 -10 -9 -9 -9 -9 -9 -9 -9 -9 -9 -9 -9 -9 -9 -9 -9 -9 -9 -10 -10 -10 -11
-11 -11 -11 -11 -11 -10 -11 -10 -10 -10 -10 -10 -10 -11 -11 -10 -10 -11 -11 -10 -10 -10 -10 -10 -10 -10 -10 -9 -9 -9 -9 -9 -9 -9 -9 -9 -9 -10 -10 -10 -11 -11 -12
-11 -11 -10 -10 -10 -10 -10 -11 -11 -11 -10 -11 -11 -11 -10 -10 -11 -10 -10 -10 -10 -10 -10 -10 -10 -10 -9 -9 -10 -10 -10 -10 -10 -10 -10 -10 -10 -10 -10 -11 -11 -12 -12
-11 -11 -11 -10 -10 -10 -10 -10 -11 -11 -11 -11 -11 -11 -11 -11 -11 -11 -10 -11 -10 -10 -10 -10 -10 -10 -10 -10 -10 -10 -10 -10 -10 -10 -10 -10 -10 -11 -12 -12 -12 -13 -13
-10 -10 -11 -11 -10 -10 -10 -10 -10 -10 -11 -11 -11 -11 -11 -11 -11 -11 -11 -11 -11 -10 -10 -10 -10 -10 -10 -11 -11 -11 -11 -11 -11 -11 -11 -11 -12 -12 -13 -13 -13 -14 -14
-11 -11 -11 -11 -11 -10 -10 -10 -10 -10 -11 -11 -11 -11 -11 -11 -11 -11 -11 -11 -11 -11 -10 -11 -11 -11 -11 -11 -11 -11 -11 -11 -11 -12 -12 -12 -13 -13 -14 -14 -14 -14 -15
Height
5917 5914 5910 5906 5903 5900 5897 5893 5889 5882 5876 5872 5866 5864 5865 5867 5868 5872 5873 5874 5875 5874 5874 5873 5872 5872 5871 5871 5870 5870 5870 5869 5869 5870 5869 5871 5871 5872 5873 5874 5875 5877 5877
5916 5913 5910 5906 5902 5899 5895 5892 5887 5881 5876 5871 5864 5861 5862 5865 5868 5871 5872 5873 5873 5872 5871 5871 5870 5870 5869 5869 5867 5866 5865 5864 5864 5865 5864 5866 5867 5867 5869 5870 5872 5873 5874
5911 5910 5908 5905 5900 5896 5893 5890 5885 5879 5876 5873 5867 5862 5862 5862 5867 5869 5871 5872 5871 5870 5869 5868 5867 5868 5867 5866 5864 5862 5861 5860 5859 5859 5861 5861 5862 5861 5863 5865 5867 5868 5871
5908 5905 5904 5901 5898 5894 5890 5888 5884 5878 5877 5874 5871 5867 5863 5863 5868 5870 5871 5871 5869 5868 5866 5865 5864 5865 5864 5863 5861 5860 5857 5855 5855 5855 5856 5856 5857 5858 5859 5861 5863 5865 5866
5905 5896 5896 5897 5895 5892 5888 5885 5883 5879 5876 5876 5874 5871 5871 5870 5870 5870 5870 5869 5867 5864 5864 5864 5863 5863 5864 5861 5858 5856 5854 5853 5851 5851 5852 5852 5852 5852 5854 5855 5859 5860 5862
5898 5881 5894 5894 5890 5889 5887 5884 5881 5879 5877 5875 5874 5873 5872 5871 5870 5869 5868 5867 5866 5865 5864 5863 5863 5861 5861 5858 5856 5853 5850 5849 5849 5848 5847 5848 5849 5849 5850 5853 5854 5856 5857
5886 5842 5865 5889 5888 5887 5884 5882 5879 5877 5875 5874 5874 5874 5872 5871 5870 5869 5868 5865 5864 5864 5863 5862 5861 5860 5859 5856 5854 5851 5848 5846 5845 5845 5845 5846 5846 5847 5848 5850 5851 5851 5854
5890 5868 5868 5879 5886 5884 5881 5879 5875 5873 5872 5871 5871 5873 5872 5872 5870 5869 5867 5865 5864 5863 5863 5862 5861 5859 5858 5856 5853 5850 5847 5846 5843 5843 5842 5842 5843 5844 5845 5847 5848 5849 5846
5891 5885 5884 5881 5882 5881 5879 5875 5871 5868 5867 5869 5868 5870 5870 5870 5869 5867 5866 5865 5864 5863 5863 5862 5861 5859 5858 5855 5854 5850 5848 5846 5844 5843 5841 5841 5842 5842 5842 5844 5846 5847 5848
5890 5887 5886 5884 5883 5879 5877 5873 5866 5862 5861 5864 5866 5868 5870 5869 5867 5867 5866 5864 5864 5863 5862 5861 5861 5860 5858 5855 5854 5852 5849 5847 5845 5845 5844 5843 5843 5843 5842 5842 5844 5846 5846
5889 5884 5882 5885 5882 5877 5877 5869 5859 5851 5850 5857 5865 5865 5867 5869 5866 5866 5865 5863 5862 5862 5861 5860 5860 5859 5857 5855 5853 5853 5851 5850 5848 5847 5846 5843 5843 5843 5843 5843 5843 5844 5844
5881 5880 5877 5880 5882 5878 5875 5869 5860 5849 5851 5858 5863 5863 5866 5866 5864 5865 5865 5862 5861 5860 5860 5859 5859 5858 5857 5855 5854 5853 5853 5852 5850 5849 5847 5846 5845 5844 5844 5843 5843 5843 5842
5881 5880 5880 5879 5881 5876 5873 5871 5865 5860 5858 5860 5861 5862 5863 5863 5863 5864 5863 5862 5860 5859 5859 5858 5858 5858 5856 5855 5854 5853 5853 5852 5851 5850 5848 5848 5847 5845 5844 5843 5843 5842 5840
5881 5879 5877 5880 5877 5873 5869 5871 5869 5864 5865 5865 5862 5861 5861 5860 5861 5863 5862 5860 5859 5858 5857 5857 5857 5857 5855 5854 5853 5852 5851 5851 5850 5848 5848 5847 5846 5844 5842 5840 5839 5838 5836
5876 5877 5874 5873 5876 5871 5867 5868 5868 5865 5864 5868 5865 5862 5860 5860 5859 5860 5860 5859 5857 5856 5855 5855 5855 5855 5854 5853 5852 5851 5849 5849 5848 5846 5845 5844 5843 5841 5839 5837 5836 5835 5833
5876 5874 5869 5867 5863 5856 5861 5865 5865 5862 5862 5863 5866 5864 5860 5859 5859 5857 5857 5856 5855 5854 5853 5853 5852 5852 5850 5850 5850 5848 5847 5846 5844 5843 5842 5841 5839 5838 5836 5834 5832 5830 5828
5872 5870 5864 5857 5848 5851 5853 5857 5859 5858 5860 5861 5860 5859 5854 5857 5856 5855 5855 5853 5853 5852 5851 5850 5849 5849 5847 5846 5846 5845 5843 5842 5841 5839 5838 5836 5835 5834 5832 5829 5826 5824 5821
5865 5863 5854 5853 5847 5846 5849 5855 5857 5856 5858 5859 5859 5856 5854 5855 5853 5851 5852 5851 5852 5851 5848 5847 5846 5846 5845 5844 5842 5842 5840 5838 5837 5835 5833 5831 5829 5827 5825 5822 5820 5817 5813
5856 5853 5849 5848 5846 5848 5851 5854 5857 5853 5855 5859 5854 5852 5851 5850 5849 5849 5850 5850 5850 5849 5846 5844 5843 5844 5843 5841 5840 5839 5837 5834 5831 5829 5828 5826 5823 5820 5818 5815 5811 5808 5805
5850 5846 5845 5847 5848 5848 5851 5852 5852 5849 5846 5854 5853 5852 5850 5850 5848 5849 5848 5847 5846 5847 5845 5843 5841 5840 5840 5838 5835 5833 5832 5829 5827 5824 5821 5818 5815 5812 5809 5805 5802 5799 5795
5847 5844 5844 5844 5844 5845 5846 5848 5849 5848 5849 5852 5849 5849 5848 5847 5847 5846 5846 5844 5843 5842 5842 5841 5839 5836 5834 5832 5830 5828 5826 5824 5821 5818 5815 5812 5807 5803 5799 5795 5792 5789 5786
5846 5845 5844 5844 5844 5844 5844 5844 5846 5845 5846 5845 5845 5845 5844 5843 5843 5843 5842 5840 5839 5838 5836 5835 5834 5832 5830 5827 5824 5821 5818 5815 5813 5810 5807 5803 5799 5794 5790 5787 5783 5778 5774
5844 5840 5842 5842 5840 5841 5842 5841 5840 5841 5841 5841 5841 5840 5839 5838 5837 5838 5837 5835 5833 5831 5830 5829 5827 5826 5823 5820 5817 5814 5812 5807 5804 5800 5796 5793 5789 5785 5781 5778 5773 5768 5764
5837 5837 5835 5835 5835 5837 5838 5837 5837 5836 5835 5835 5835 5834 5833 5832 5832 5832 5831 5829 5827 5826 5824 5822 5819 5817 5815 5812 5809 5807 5804 5800 5796 5791 5787 5783 5778 5775 5771 5767 5762 5758 5754
5830 5831 5831 5832 5832 5833 5833 5832 5831 5832 5832 5830 5828 5828 5827 5826 5825 5824 5823 5823 5822 5820 5817 5815 5812 5809 5806 5803 5800 5797 5794 5790 5786 5782 5777 5773 5768 5764 5760 5755 5750 5745 5742
5822 5823 5823 5824 5825 5826 5826 5827 5827 5827 5825 5823 5823 5822 5821 5820 5819 5818 5817 5815 5813 5811 5808 5806 5803 5800 5797 5794 5791 5787 5784 5780 5776 5771 5766 5762 5758 5754 5749 5745 5741 5736 5731
Wind_Speed
25 35 38 28 26 25 22 20 21 21 20 19 22 10 9 11 13 10 7 5 7 8 10 14 12 14 16 18 18 18 20 22 21 20 21 19 19 20 19 25 24 26 26
28 29 38 29 24 22 21 20 20 21 23 21 25 3 13 13 12 12 11 7 6 9 11 10 11 12 15 14 15 16 18 22 22 20 20 19 19 17 22 24 26 25 27
28 28 34 30 25 20 20 20 18 19 20 24 22 2 16 21 14 7 7 8 8 10 9 9 10 12 14 12 14 16 19 19 19 20 20 19 18 22 22 25 24 23 24
27 28 31 27 25 24 22 19 18 18 16 16 19 19 8 10 3 2 7 9 10 11 9 7 9 11 14 15 16 18 19 22 19 17 20 20 19 17 15 24 22 22 22
27 33 25 25 21 21 22 21 19 16 16 12 10 10 8 6 7 9 11 11 11 11 8 8 8 10 12 14 14 15 14 15 16 17 17 18 19 19 21 15 20 21 22
31 25 19 21 17 20 20 20 21 15 16 13 10 7 5 4 6 9 12 11 11 7 7 7 8 9 13 10 11 13 14 12 12 12 14 15 18 21 20 18 22 22 24
32 57 23 12 14 17 20 21 23 20 14 12 10 8 6 4 2 5 6 8 7 5 7 7 6 8 8 8 9 9 8 8 7 8 11 12 13 17 19 21 22 17 22
46 45 7 3 12 17 23 26 28 24 13 12 8 8 7 6 3 2 6 5 4 3 4 4 5 3 5 5 6 7 7 5 4 4 4 7 8 9 16 18 10 15 17
37 40 18 9 13 19 26 29 31 24 15 10 7 5 7 6 3 2 5 4 4 3 2 4 4 5 5 6 7 7 5 6 4 1 3 2 4 5 5 4 9 11 12
35 38 27 17 14 18 26 30 32 26 20 14 8 4 5 5 2 1 3 3 3 4 4 4 4 6 6 6 6 9 7 6 6 4 3 3 2 2 2 4 8 11 13
39 35 20 16 12 15 25 31 34 20 22 22 9 4 3 5 1 2 2 2 2 2 3 5 5 6 6 5 5 6 8 8 9 10 10 8 5 4 4 4 5 7 8
33 15 11 14 14 11 20 25 24 7 3 12 7 4 4 1 3 4 4 0 1 2 2 3 5 5 4 4 8 9 9 9 10 12 12 12 11 10 9 8 8 9 10
29 21 18 20 15 7 12 17 14 16 13 10 8 5 3 2 4 5 4 2 2 3 4 4 4 4 1 0 3 3 2 3 4 6 6 6 7 8 9 9 9 11 12
21 25 17 19 14 7 5 13 9 10 9 5 2 2 2 4 2 7 7 3 3 3 5 4 4 4 3 3 4 4 4 6 7 8 9 11 12 12 13 15 15 15 16
29 35 26 30 21 10 3 5 9 6 7 7 6 4 1 2 2 4 7 7 6 6 6 6 7 6 5 6 7 6 7 9 11 12 14 16 16 16 15 14 14 14 15
28 22 28 12 32 22 10 6 7 6 7 5 6 8 1 2 6 4 6 8 8 9 8 8 7 8 7 7 10 10 11 11 12 13 13 13 14 14 14 16 19 20 21
24 21 20 29 24 21 15 12 9 8 9 10 11 12 3 4 8 8 6 8 8 7 10 12 10 9 8 9 9 8 7 8 8 10 13 16 17 18 20 21 22 23 24
19 13 6 18 14 9 9 7 11 16 15 17 8 6 4 7 10 10 10 10 10 9 9 12 12 12 10 7 7 8 9 11 14 17 19 20 21 22 22 24 25 26 28
16 13 10 16 9 12 7 12 20 21 20 12 3 7 7 11 13 15 8 10 11 10 7 6 5 6 7 11 15 15 16 18 19 18 20 22 24 24 24 26 27 29 30
13 11 9 12 14 13 12 15 15 23 7 6 9 10 10 12 11 12 9 7 10 11 8 7 10 14 17 19 20 19 18 17 20 23 24 25 27 29 29 30 31 32 32
7 9 10 12 12 12 11 11 13 13 10 7 6 12 10 12 15 13 13 12 12 13 14 15 15 17 19 20 20 22 23 24 23 24 27 29 31 33 34 34 35 35 34
9 11 11 15 16 14 11 11 12 11 12 12 10 13 14 14 17 21 19 18 17 17 18 20 21 21 21 23 24 27 29 29 29 30 32 33 35 36 39 40 40 40 40
16 15 15 15 13 15 14 13 14 15 16 13 14 14 15 16 16 20 23 27 27 24 23 24 26 28 29 29 29 30 31 32 33 34 36 38 42 44 44 43 41 41 42
17 14 12 15 15 17 19 18 17 18 17 17 16 17 20 20 21 25 26 25 28 31 30 31 31 32 34 34 34 33 34 34 37 39 41 43 46 45 42 42 43 43 40
17 17 17 18 20 22 23 22 23 21 22 22 21 21 22 23 25 26 26 27 28 30 31 32 33 34 34 33 34 35 36 38 41 42 44 46 44 42 43 43 41 41 41
19 20 19 21 22 24 26 27 28 27 26 27 27 26 26 25 26 27 29 30 32 33 33 33 33 34 35 37 37 37 39 41 43 43 45 44 43 42 39 38 38 38 38
Wind_Direction
343 349 346 342 343 336 340 343 347 338 343 332 331 302 228 206 199 206 211 212 252 271 275 279 278 272 274 273 273 265 261 261 264 259 256 251 250 259 247 233 237 244 244
327 330 337 333 334 330 336 343 346 340 347 350 359 221 189 176 202 200 209 224 273 292 290 278 274 280 285 279 270 271 265 265 266 261 264 264 257 253 252 242 242 247 245
314 311 327 327 326 329 337 344 346 343 350 351 7 74 178 164 157 184 237 267 282 299 297 280 272 274 281 285 285 278 272 270 269 264 265 262 262 255 259 229 238 243 243
308 306 314 322 324 325 336 346 352 344 342 345 5 19 55 97 98 251 288 284 295 316 306 299 292 295 293 295 289 282 279 279 274 266 259 256 255 261 251 237 238 242 238
291 284 296 308 318 319 332 351 357 339 332 330 338 6 25 18 348 321 309 306 311 316 322 313 289 291 288 291 294 291 283 277 278 268 260 254 256 257 244 245 245 250 246
272 247 297 300 309 322 334 343 352 338 319 312 317 310 331 12 357 340 329 321 318 303 304 294 292 291 298 303 303 301 283 279 274 264 259 255 255 258 262 253 253 255 240
284 305 241 276 317 330 334 333 337 338 311 302 305 313 311 284 302 329 319 332 336 331 334 328 305 294 303 313 318 322 308 296 278 275 259 258 258 260 247 250 250 264 229
331 334 121 147 321 335 337 331 332 325 308 283 297 306 309 296 236 336 8 351 342 330 339 330 321 329 335 331 347 348 350 323 326 306 281 269 275 263 246 247 253 262 222
326 335 333 325 323 342 332 331 328 314 289 268 257 276 302 308 287 6 12 6 15 21 318 348 349 3 358 4 5 13 18 24 35 18 347 298 282 304 303 214 263 254 254
324 330 324 310 325 341 331 330 327 322 267 244 207 215 282 284 293 313 9 35 46 39 37 13 358 342 351 358 17 34 43 62 69 40 46 44 10 348 326 280 282 278 275
321 312 294 299 314 339 337 340 333 320 268 238 188 177 277 278 311 7 322 43 54 12 17 17 351 344 353 28 44 44 57 66 67 55 51 59 43 6 337 327 293 288 292
337 263 270 289 295 344 344 347 346 19 77 141 167 170 242 283 23 344 287 331 48 32 335 325 331 331 352 80 79 74 79 77 71 66 57 50 45 36 22 5 349 331 326
334 336 282 271 274 318 355 357 19 57 97 150 155 168 146 39 6 327 295 330 1 17 354 357 324 301 319 73 101 88 78 41 18 16 13 4 348 337 328 318 312 309 307
348 325 310 277 258 266 9 3 355 43 25 24 68 118 81 76 32 337 299 300 319 329 340 337 324 290 253 239 235 238 266 283 295 310 317 315 311 310 308 307 304 301 300
322 325 288 296 244 233 180 327 350 358 357 328 326 293 137 77 36 345 312 298 292 308 313 313 304 289 284 273 269 271 276 284 291 296 300 303 305 305 302 300 299 295 289
297 318 314 287 254 209 197 237 302 336 322 272 280 271 257 1 347 6 322 308 298 298 299 295 298 289 282 274 273 274 280 287 297 303 306 309 310 308 304 299 298 295 291
300 292 289 292 266 208 200 211 248 268 281 277 238 246 217 326 333 329 336 321 325 309 293 291 295 289 290 294 292 296 308 310 314 313 309 305 305 308 305 304 302 299 295
284 281 273 277 299 331 196 235 259 268 265 262 248 269 355 313 330 341 336 317 316 317 313 306 294 286 297 298 304 309 306 307 308 309 307 307 307 307 308 305 301 298 295
278 277 283 285 325 306 287 282 277 266 274 262 356 0 343 344 338 346 318 309 306 308 308 312 306 304 302 303 304 308 308 310 308 310 309 309 307 308 308 306 303 301 298
266 248 275 318 307 304 285 290 294 317 202 357 340 324 339 316 332 340 333 293 297 299 288 289 304 309 311 311 310 310 311 311 310 313 314 311 309 310 310 309 307 304 302
278 263 293 299 301 292 291 286 296 327 332 308 319 313 313 316 303 320 317 311 300 290 286 291 298 306 311 310 307 306 304 306 307 309 313 312 312 312 313 311 310 309 305
262 273 274 277 293 301 292 282 279 298 302 313 311 308 310 306 311 304 302 302 298 296 296 299 303 306 307 306 310 307 308 306 308 309 312 316 314 313 313 310 308 306 305
240 251 260 269 286 298 294 290 289 287 293 290 289 288 290 298 302 297 297 300 297 294 295 298 301 302 305 305 304 306 305 304 307 312 315 313 311 310 308 306 303 303 303
250 259 267 275 283 292 293 291 290 287 282 290 293 298 298 296 298 295 289 294 298 294 292 295 299 301 302 302 302 303 302 300 304 309 310 309 309 307 305 303 302 302 300
253 267 273 275 278 281 285 288 288 284 279 286 291 291 292 296 297 309 288 290 294 297 296 295 297 298 298 300 302 305 304 306 307 307 306 307 306 305 305 305 305 304 302
270 273 274 276 275 278 282 282 279 279 282 283 287 289 291 292 294 292 292 291 295 296 295 294 296 298 300 301 301 302 302 305 306 305 305 305 305 304 304 303 303 303 303